COSMOS 1275 DEB

Satellite information

Favourite Embed

Satellite Type and Status

DEBRISIN ORBIT

Key statistics

Satellite COSMOS 1275 DEB at a glance.

Uptime

16263

Days in orbit

Revolutions

≈ 14.1

Per day

Orbit

LEO

Low Earth Orbit

Inclination

82.8

Latest

Satellite identification and parameters

Extended collection of information and parameters for COSMOS 1275 DEB.

Object identification

Identified? True

Debris? True

Object name: COSMOS 1275 DEB

International designator: 1981-053GX

Object number (NORAD): 13803

Object ID (CCSDS): 13803

Country: COMMONWEALTH OF INDEPENDENT STATES (CIS)

Current information (Y/N): Y

RCS size: SMALL

Orbital parameters

Period: 102.036 minutes

Inclination: 82.8128 deg

SMA: 7233.17 km

Apoapsis: 887.933 km

Periapsis: 822.137 km

RAAN: 267.947 deg

Eccentricy: 0.00454819

Argument of periapsis: 85.7873 deg

Mean anomaly: 41.9764 deg

Mean motion: 14.1126882 rev/day

Mean motion (dot): 0.00004119 rev/day2

B* drag term: 0.0022507958 1/REarth

Two-line elements (TLE)

Creation date: Dec. 12, 2025, 10:14 a.m.

Reference frame: TEME

Reference center: EARTH

Epoch: Dec. 12, 2025, 7:35 a.m. UTC

TLE line 0: 0 COSMOS 1275 DEB

TLE line 1: 1 13803U 81053GX 25346.31638689 .00004119 00000-0 22508-2 0 9990

TLE line 2: 2 13803 82.8128 267.9470 0045482 85.7873 41.9764 14.11268820186506

Live tracking on map

Real-time ground track for satellite COSMOS 1275 DEB.

In-orbit conjunctions

A list of the most updated potential collisions computed for object COSMOS 1275 DEB.

Target Orbit TCA Probability of collision Miss distance Type
CZ-6A DEB SSO 2025-06-23 04:46:02 0.000735507 84.0 (m) DEBRIS
METEOR 2-3 LEO 2024-11-13 23:24:28 0.0003316988 288.0 (m) PAYLOAD
FENGYUN 1C DEB SSO 2024-09-01 19:03:42 0.0001238599 164.0 (m) DEBRIS
CZ-6A DEB SSO 2024-06-08 02:45:55 0.0006966109 31.0 (m) DEBRIS

Associated space launch

Navigation satellite providing location information for the Tsiklon-B navigation system

COSMOS 1275 DEB was lifted into orbit during the mission ‘Kosmos-3M | Parus 27’, on board a Kosmos-3M space rocket.

The launch took place on June 4, 1981, 3:41 p.m. from 132/2.

For more information about the launch, click the button.

Launch to space Kosmos-3M | Parus 27
Kosmos-3M | Parus 27

Agency: N/A

Status: Launch Successful

Launch date: June 4, 1981, 3:41 p.m. UTC

Rocket: Kosmos-3M

Launch pad: 132/2

Location: Plesetsk Cosmodrome, Russian Federation

...

Latest news about this satellite

There are no fresh news available about this satellite. Check back as we update our databases every day.


Newsletter sign-up

Weekly statistics, charts and insights to help you stay on top of the space industry.